User: anonymous   Login
Location: Dampvalley
(47.9094°N, 6.1967°E)
Time: 21:56:55
(UTC+00:00)
Language:

Iridium 51 - Orbit

View from above orbital plane
View from above orbital plane
View from above satellite
View from above satellite

Ground track
Ground track

The orbit data is extracted from the following two-line orbital elements,

1 25262U 98018A   21134.71506598  .00000882  00000-0  60179-4 0  9990
2 25262  86.4022  33.9228 0200321 295.5917  62.4725 14.89857986222472
Epoch (UTC): 14 May 2021 17:09:41
Eccentricity: 0.0200321
inclination: 86.4022°
perigee height: 458 km
apogee height: 738 km
right ascension of ascending node: 33.9228°
argument of perigee: 295.5917°
revolutions per day: 14.89857986
mean anomaly at epoch: 62.4725°
orbit number at epoch: 22247

The dashed part of the orbit path shows where the satellite is in the earth's shadow,  

DLR